sat.trackr.live / text

‹ back to catalog

STARLINK-31633

NORAD 59331 · 2024-057M

PAYLOAD ACTIVE UNKNOWN

§ Identity

Operator
Country
US
Launch date
2024-03-25
Launch site
AFETR
Launch vehicle
Mass (kg)
RCS (m²)

Purposes: comms

External: N2YO · Heavens-Above · Gunter

§ Orbital elements

Epoch: 2026-05-24T23:23:02.314176Z

Period
94.27 min
Inclination
43.0035°
Eccentricity
0.0001440
Mean motion
15.27575274 rev/d
Perigee alt
482.1 km
Apogee alt
484.1 km
Semi-major
6,861.2 km
B*
3.1515e-5
RAAN
116.4449°
Arg perigee
285.8868°
Mean anomaly
74.1825°
Rev number
12,150

§ Raw data

STARLINK-316331 59331U 24057M   26144.97433234  .00000605  00000+0  31515-4 0  99902 59331  43.0035 116.4449 0001440 285.8868  74.1825 15.27575274121502

JSON: /api/v1/satellites/59331 · /tle

For live sub-satellite position, see the globe view (requires WebGL).

§ Visibility from observer

Set your observer location to see the next 7 days of passes ≥ 10°. The values pass through the URL so the page stays shareable.

No JS? Fill the form by hand. The geolocation button needs JavaScript.